Weather History for Baudette, MN

Change the Weather History Date:

Sunday, January 27, 2013

  Actual Average Record
Temperature  
Mean Temperature 16 °F -  
Max Temperature 26 °F 14 °F 46 °F (1989)
Min Temperature 5 °F -11 °F -38 °F (1950)
Degree Days  
Heating Degree Days 50    
Moisture  
Dew Point 10 °F    
Average Humidity 75    
Maximum Humidity 84    
Minimum Humidity 63    
Precipitation  
Precipitation 0.00 in - - ()
Sea Level Pressure  
Sea Level Pressure 29.97 in    
Wind  
Wind Speed 5 mph (ESE)    
Max Wind Speed 9 mph    
Max Gust Speed -    
Visibility 10 miles    
Events      
Averages and records for this station are not official NWS values.
T = Trace of Precipitation, MM = Missing Value Source: NWS Daily Summary

Daily Weather History Graph

Daily Weather History Graph

Search for Another Location

Airport:

Trip Planner

Search our weather history database for the weather conditions in past years. The results will help you decide how hot, cold, wet, or windy it might be!

Date:

Astronomy

Jan. 27, 2013 Rise Set
Actual Time 7:54 AM CST 5:08 PM CST
Civil Twilight 7:19 AM CST 5:43 PM CST
Nautical Twilight 6:41 AM CST 6:21 PM CST
Astronomical Twilight 6:04 AM CST 6:58 PM CST
Moon 6:13 PM CST (1/27) 7:40 AM CST (1/27)
Length of Visible Light 10h 23m
Length of Day
9h 14m
Full, 100% of the Moon is Illuminated
Jan 27
Full
Feb 3
Last Quarter
Feb 10
New
Feb 17
First Quarter
Feb 25
Full

Hourly Weather History & Observations

Time (CST) Temp. Windchill Dew Point Humidity Pressure Visibility Wind Dir Wind Speed Gust Speed Precip Events Conditions
12:53 AM 12.0 °F 5.9 °F 3.9 °F 70% 30.12 in 10.0 mi SSE 3.5 mph - N/A   Scattered Clouds
1:53 AM 10.9 °F - 3.0 °F 70% 30.11 in 10.0 mi Calm Calm - N/A   Clear
2:53 AM 9.0 °F 2.4 °F 3.0 °F 77% 30.11 in 10.0 mi SE 3.5 mph - N/A   Scattered Clouds
3:53 AM 10.0 °F 1.8 °F 3.9 °F 76% 30.09 in 10.0 mi SE 4.6 mph - N/A   Scattered Clouds
4:53 AM 8.1 °F -0.5 °F 3.0 °F 80% 30.06 in 10.0 mi ESE 4.6 mph - N/A   Partly Cloudy
5:53 AM 5.0 °F -4.1 °F 1.0 °F 84% 30.07 in 10.0 mi ESE 4.6 mph - N/A   Clear
6:53 AM 6.1 °F -0.9 °F 1.9 °F 83% 30.07 in 10.0 mi ESE 3.5 mph - N/A   Clear
7:53 AM 5.0 °F -4.1 °F 1.0 °F 84% 30.06 in 10.0 mi ESE 4.6 mph - N/A   Clear
8:53 AM 7.0 °F -3.3 °F 1.9 °F 80% 30.04 in 10.0 mi SE 5.8 mph - N/A   Clear
9:53 AM 9.0 °F 0.6 °F 3.9 °F 80% 30.02 in 10.0 mi SSE 4.6 mph - N/A   Clear
10:53 AM 16.0 °F 10.4 °F 7.0 °F 68% 30.02 in 10.0 mi East 3.5 mph - N/A   Clear
11:53 AM 18.0 °F 11.1 °F 9.0 °F 68% 30.00 in 10.0 mi ENE 4.6 mph - N/A   Clear
12:53 PM 21.9 °F 13.4 °F 10.9 °F 63% 29.97 in 10.0 mi East 6.9 mph - N/A   Clear
1:53 PM 23.0 °F 13.1 °F 12.9 °F 65% 29.94 in 10.0 mi East 9.2 mph - N/A   Clear
2:53 PM 25.0 °F 16.3 °F 14.0 °F 63% 29.92 in 10.0 mi East 8.1 mph - N/A   Clear
3:53 PM 25.0 °F 18.1 °F 15.1 °F 66% 29.92 in 10.0 mi East 5.8 mph - N/A   Clear
4:53 PM 23.0 °F 14.7 °F 15.1 °F 72% 29.92 in 10.0 mi East 6.9 mph - N/A   Partly Cloudy
5:10 PM 24.8 °F 16.9 °F 17.6 °F 74% 29.85 in 10.0 mi East 6.9 mph - N/A   Mostly Cloudy
5:53 PM 26.1 °F 17.6 °F 17.1 °F 69% 29.91 in 10.0 mi East 8.1 mph - N/A   Overcast
6:53 PM 24.1 °F 15.2 °F 17.1 °F 75% 29.91 in 10.0 mi East 8.1 mph - N/A   Overcast
7:18 PM 23.0 °F 14.7 °F 15.8 °F 74% 29.84 in 10.0 mi East 6.9 mph - N/A   Scattered Clouds
7:53 PM 21.0 °F 16.2 °F 15.1 °F 78% 29.91 in 10.0 mi East 3.5 mph - N/A   Clear
8:53 PM 19.9 °F 11.1 °F 15.1 °F 81% 29.89 in 10.0 mi ESE 6.9 mph - N/A   Clear
9:53 PM 21.0 °F 14.6 °F 16.0 °F 81% 29.88 in 10.0 mi ESE 4.6 mph - N/A   Partly Cloudy
10:06 PM 21.2 °F 14.9 °F 15.8 °F 80% 29.81 in 10.0 mi ESE 4.6 mph - N/A   Mostly Cloudy
10:53 PM 21.9 °F 14.5 °F 17.1 °F 82% 29.87 in 10.0 mi SE 5.8 mph - N/A   Overcast
11:53 PM 21.0 °F 16.2 °F 16.0 °F 81% 29.87 in 10.0 mi SE 3.5 mph - N/A   Overcast